Glasgow, United Kingdom

3:08 AM BST on April 25, 2018 (GMT +0100)
Glasgow

Weather History for EGPF - February, 2014

Change the Weather History Date:

Thursday, February 27, 2014

  Actual Average Record
Temperature  
Mean Temperature 40 °F -  
Max Temperature 46 °F 47 °F 53 °F (2012)
Min Temperature 33 °F 34 °F 21 °F (2018)
Degree Days  
Heating Degree Days 26    
Moisture  
Dew Point 37 °F    
Average Humidity 87    
Maximum Humidity 93    
Minimum Humidity 71    
Precipitation  
Precipitation 0.00 in - - ()
Sea Level Pressure  
Sea Level Pressure 29.43 in    
Wind  
Wind Speed 9 mph ()    
Max Wind Speed 21 mph    
Max Gust Speed 32 mph    
Visibility 6.0 miles    
Events Rain    
Averages and records for this station are not official NWS values.
T = Trace of Precipitation, MM = Missing Value Source: Averaged Metar Reports

Daily Weather History Graph

Daily Weather History Graph

Search for Another Location

Airport or City:

Astronomy

Feb. 27, 2014 Rise Set
Actual Time 7:14 AM GMT 5:47 PM GMT
Civil Twilight 6:36 AM GMT 6:25 PM GMT
Nautical Twilight 5:54 AM GMT 7:07 PM GMT
Astronomical Twilight 5:11 AM GMT 7:51 PM GMT
Moon 5:52 AM GMT (2/27) 3:43 PM GMT (2/27)
Length of Visible Light 11h 48m
Length of Day
10h 33m
Waning Crescent, 5% of the Moon is Illuminated
Feb 27
Waning Crescent
Mar 1
New
Mar 8
First Quarter
Mar 16
Full
Mar 24
Last Quarter

Hourly Weather History & Observations

Time (GMT) Temp. Windchill Dew Point Humidity Pressure Visibility Wind Dir Wind Speed Gust Speed Precip Events Conditions
12:20 AM 42.8 °F 38.0 °F 41.0 °F 93% 29.47 in 5.0 mi SE 8.1 mph - N/A Rain Light Rain
12:50 AM 42.8 °F 38.0 °F 41.0 °F 93% 29.44 in 4.3 mi SSE 8.1 mph - N/A Rain Light Rain
1:20 AM 42.8 °F 35.8 °F 39.2 °F 87% 29.44 in 6.2 mi South 13.8 mph - N/A Rain Light Rain
1:50 AM 42.8 °F 37.5 °F 39.2 °F 87% 29.42 in 5.0 mi SSE 9.2 mph - N/A Rain Rain
2:20 AM 42.8 °F 37.5 °F 39.2 °F 87% 29.39 in 5.6 mi SSE 9.2 mph - N/A Rain Light Rain
2:50 AM 42.8 °F 37.0 °F 39.2 °F 87% 29.36 in 5.6 mi South 10.4 mph - N/A Rain Light Rain
3:20 AM 41.0 °F 33.9 °F 39.2 °F 93% 29.36 in 5.0 mi SSE 12.7 mph - N/A Rain Rain
3:50 AM 41.0 °F 33.1 °F 37.4 °F 87% 29.33 in 6.2 mi SSE 15.0 mph - N/A Rain Light Rain
4:20 AM 41.0 °F 35.8 °F 37.4 °F 87% 29.33 in 5.0 mi WSW 8.1 mph - N/A Rain Light Rain
4:50 AM 42.8 °F 36.6 °F 41.0 °F 93% 29.33 in 6.2 mi WSW 11.5 mph - N/A Rain Light Rain
5:20 AM 41.0 °F - 39.2 °F 93% 29.33 in 6.2 mi Calm Calm - N/A Rain Light Rain
5:50 AM 42.8 °F 38.6 °F 41.0 °F 93% 29.33 in 6.2 mi West 6.9 mph - N/A   Partly Cloudy
6:20 AM 42.8 °F 37.5 °F 39.2 °F 87% 29.36 in 6.2 mi WSW 9.2 mph - N/A   Scattered Clouds
6:50 AM 44.6 °F 38.4 °F 39.2 °F 81% 29.36 in 6.2 mi WSW 12.7 mph - N/A   Scattered Clouds
7:20 AM 42.8 °F 37.0 °F 37.4 °F 81% 29.39 in 6.2 mi WSW 10.4 mph - N/A   Scattered Clouds
7:50 AM 41.0 °F 35.2 °F 37.4 °F 87% 29.39 in 6.2 mi WSW 9.2 mph - N/A   Scattered Clouds
8:20 AM 41.0 °F 35.2 °F 37.4 °F 87% 29.39 in 6.2 mi West 9.2 mph - N/A   Partly Cloudy
8:50 AM 42.8 °F 36.2 °F 39.2 °F 87% 29.42 in 6.2 mi WSW 12.7 mph - N/A   Scattered Clouds
9:20 AM 42.8 °F 36.6 °F 37.4 °F 81% 29.42 in 6.2 mi WSW 11.5 mph - N/A   Partly Cloudy
9:50 AM 44.6 °F 38.1 °F 39.2 °F 81% 29.42 in 6.2 mi WSW 13.8 mph - N/A   Partly Cloudy
10:20 AM 46.4 °F 39.5 °F 39.2 °F 76% 29.44 in 6.2 mi WSW 17.3 mph - N/A   Scattered Clouds
10:50 AM 44.6 °F 37.4 °F 37.4 °F 76% 29.44 in 6.2 mi WSW 16.1 mph - N/A   Mostly Cloudy
11:20 AM 41.0 °F 32.5 °F 37.4 °F 87% 29.44 in 6.2 mi West 17.3 mph 32.2 mph N/A Rain Light Rain Showers
11:50 AM 39.2 °F 31.2 °F 37.4 °F 93% 29.47 in 6.2 mi WSW 13.8 mph - N/A Rain Light Rain Showers
12:20 PM 44.6 °F 37.8 °F 39.2 °F 81% 29.47 in 6.2 mi West 15.0 mph - N/A   Mostly Cloudy
12:50 PM 42.8 °F 35.1 °F 37.4 °F 81% 29.47 in 6.2 mi WSW 16.1 mph - N/A Rain Light Rain Showers
1:20 PM 41.0 °F 35.8 °F 39.2 °F 93% 29.47 in 6.2 mi West 8.1 mph - N/A   Mostly Cloudy
1:50 PM 44.6 °F 38.4 °F 39.2 °F 81% 29.47 in 6.2 mi West 12.7 mph - N/A   Scattered Clouds
2:20 PM 44.6 °F 36.6 °F 37.4 °F 76% 29.47 in 6.2 mi WSW 19.6 mph - N/A   Scattered Clouds
2:50 PM 46.4 °F 38.7 °F 37.4 °F 71% 29.47 in 6.2 mi WSW 20.7 mph - N/A   Mostly Cloudy
3:20 PM 37.4 °F 32.1 °F 35.6 °F 93% 29.47 in 6.2 mi West 6.9 mph - N/A Rain Light Rain Showers
3:50 PM 39.2 °F 32.0 °F 35.6 °F 87% 29.47 in 6.2 mi WSW 11.5 mph - N/A   Scattered Clouds
4:20 PM 39.2 °F 33.0 °F 37.4 °F 93% 29.47 in 6.2 mi SW 9.2 mph - N/A   Scattered Clouds
4:50 PM 41.0 °F 36.4 °F 37.4 °F 87% 29.47 in 6.2 mi SSW 6.9 mph - N/A   Scattered Clouds
5:20 PM 41.0 °F 34.3 °F 35.6 °F 81% 29.47 in 6.2 mi SW 11.5 mph - N/A   Scattered Clouds
5:50 PM 41.0 °F 33.5 °F 35.6 °F 81% 29.47 in 6.2 mi SW 13.8 mph - N/A   Mostly Cloudy
6:20 PM 39.2 °F 31.2 °F 35.6 °F 87% 29.50 in 6.2 mi West 13.8 mph - N/A Rain Light Rain
6:50 PM 37.4 °F 33.8 °F 33.8 °F 87% 29.50 in 6.2 mi SW 4.6 mph - N/A   Scattered Clouds
7:20 PM 37.4 °F 32.8 °F 33.8 °F 87% 29.47 in 6.2 mi South 5.8 mph - N/A   Partly Cloudy
7:50 PM 35.6 °F 30.7 °F 33.8 °F 93% 29.47 in 6.2 mi SSE 5.8 mph - N/A   Partly Cloudy
8:20 PM 37.4 °F 33.8 °F 35.6 °F 93% 29.47 in 6.2 mi South 4.6 mph - N/A   Scattered Clouds
8:50 PM 37.4 °F 34.9 °F 35.6 °F 93% 29.47 in 6.2 mi Variable 3.5 mph - N/A   Scattered Clouds
9:20 PM 37.4 °F 31.4 °F 35.6 °F 93% 29.47 in 6.2 mi SW 8.1 mph - N/A   Scattered Clouds
9:50 PM 37.4 °F 32.1 °F 35.6 °F 93% 29.47 in 6.2 mi SW 6.9 mph - N/A   Partly Cloudy
10:20 PM 35.6 °F 32.8 °F 33.8 °F 93% 29.47 in 6.2 mi North 3.5 mph - N/A   Partly Cloudy
10:50 PM 35.6 °F - 33.8 °F 93% 29.44 in 6.2 mi Variable 2.3 mph - N/A   Partly Cloudy
11:20 PM 33.8 °F - 32.0 °F 93% 29.47 in 6.2 mi Variable 2.3 mph - N/A   Mostly Cloudy
11:50 PM 33.8 °F - 32.0 °F 93% 29.44 in 6.2 mi Variable 2.3 mph - N/A   Mostly Cloudy